{"data":{"norad_id":48395,"intl_designator":"2021-038AU","name":"STARLINK-2574","alt_names":[],"object_type":"PAYLOAD","status":"ACTIVE","operator":null,"country":"US","launch_date":"2021-05-04","launch_site_code":"AFETR","launch_vehicle":null,"mission":null,"orbit_class":"UNKNOWN","rcs_meters":null,"size_class":null,"mass_kg":null,"dimensions":null,"purposes":["comms"],"wikipedia_slug":null,"has_3d_model":false,"image_url":null,"decayed_at":null,"tle_current":{"epoch":"2026-09-19T10:05:23.089632Z","epoch_age_seconds":127040,"freshness":"FRESH","line1":"1 48395U 21038AU  26262.42040613  .00000784  00000+0  37018-4 0  9992","line2":"2 48395  53.1599 153.3203 0001102  89.6715 270.4412 15.31700134298318","mean_motion":15.31700134,"eccentricity":0.0001102,"inclination_deg":53.1599,"raan_deg":153.3203,"arg_perigee_deg":89.6715,"mean_anomaly_deg":270.4412,"bstar":3.7018e-5,"rev_number":29831,"period_min":94.013179736393,"perigee_km":469.9848495778,"apogee_km":471.4943419795,"semimajor_km":6848.8765957786,"source":"CELESTRAK","updated_at":"2026-09-20T09:00:38.946097Z"}}}